Date,TemperatureHighF,TemperatureAvgF,TemperatureLowF,DewpointHighF,DewpointAvgF,DewpointLowF,HumidityHigh,HumidityAvg,HumidityLow,PressureMaxIn,PressureMinIn,WindSpeedMaxMPH,WindSpeedAvgMPH,GustSpeedMaxMPH,PrecipitationSumIn
2013-2-1,19.8,17.4,15.3,14.6,11.5,8.6,89,78,64,30.22,29.71,17,10,21,0.00
2013-2-2,19.0,15.4,11.7,14.7,9.9,5.0,89,79,70,30.22,29.99,13,5,17,0.00
2013-2-3,23.7,16.6,7.2,15.4,11.5,4.7,94,81,56,30.00,29.81,11,3,14,0.00
2013-2-4,18.3,16.8,14.5,14.5,11.3,7.2,89,79,65,29.99,29.89,14,6,22,0.00
2013-2-5,26.6,20.7,14.2,19.3,15.8,12.1,92,81,70,29.98,29.86,6,1,7,0.00
2013-2-6,25.5,22.5,13.0,23.7,16.3,9.9,93,77,58,30.39,29.90,15,6,16,0.00
2013-2-7,31.6,22.3,9.7,23.0,16.2,7.1,91,78,61,30.43,30.08,6,2,12,0.00
2013-2-8,36.2,29.3,16.4,33.9,25.8,14.5,97,87,70,30.09,29.75,7,1,11,0.14
2013-2-9,19.4,15.6,7.7,16.7,13.2,5.4,93,90,85,30.45,30.10,0,0,4,0.00
2013-2-10,38.9,23.2,3.4,26.9,15.0,0.7,92,73,50,30.44,29.99,12,2,17,0.08
2013-2-11,50.3,38.1,31.7,42.1,30.8,23.0,89,75,54,29.99,29.56,23,12,29,0.04
2013-2-12,31.9,30.7,29.2,28.7,25.8,22.6,90,82,73,29.98,29.73,18,11,33,0.00
2013-2-13,40.6,30.7,24.6,28.2,24.1,21.8,90,77,56,29.92,29.72,7,1,8,0.00
2013-2-14,40.5,31.6,24.8,34.2,27.5,22.0,94,85,63,29.93,29.78,8,3,11,0.09
2013-2-15,37.8,31.3,22.0,34.6,23.9,14.4,91,74,60,30.06,29.78,17,10,25,0.00
2013-2-16,29.1,22.7,17.4,19.6,14.4,9.3,92,71,47,30.07,29.93,7,2,9,0.00
2013-2-17,17.4,12.8,10.1,15.1,8.6,2.4,92,83,69,30.23,29.91,16,7,19,0.00
2013-2-18,35.2,21.5,9.4,21.5,12.7,5.0,86,70,49,30.32,29.94,10,3,12,0.00
2013-2-19,41.8,33.0,22.3,36.9,26.1,17.6,92,77,54,29.94,29.55,19,9,24,0.13
2013-2-20,22.2,19.0,16.4,19.0,14.6,10.4,91,83,74,30.10,29.75,20,12,28,0.00
2013-2-21,19.3,17.1,13.0,16.1,12.7,9.1,87,82,77,30.45,30.07,22,8,24,0.00
2013-2-22,33.5,26.1,19.0,28.2,22.1,15.8,90,85,75,30.42,30.02,10,4,24,0.00
2013-2-23,36.7,31.8,29.3,32.1,28.0,23.0,92,86,77,30.04,29.87,11,4,24,0.02
2013-2-24,29.5,28.6,27.8,25.1,23.7,21.8,87,82,77,30.08,29.86,14,8,24,0.00
2013-2-25,33.7,30.4,26.2,27.3,25.6,23.8,91,82,71,30.24,30.08,9,3,24,0.00
2013-2-26,40.2,31.2,18.5,32.1,26.3,17.0,98,83,63,30.24,29.77,17,4,24,0.34
2013-2-27,37.8,33.7,32.0,35.7,32.7,31.4,98,96,89,29.77,29.57,7,1,24,0.63
2013-2-28,34.7,32.9,31.7,32.1,31.0,30.2,98,93,85,29.73,29.53,9,5,24,0.19